| time (UTC) | temp F | wind direction | speed MPH | gust MPH | rain 1hr in | rain 24hr in | rain mn in | humidity % | barometer mb |
| 20260503225037 | 65 | 146 | 1.0 | 6.0 | 0.00 | 0.00 | 0.00 | 61 | 1017.5 |
| 20260503224559 | 65 | 181 | 1.0 | 6.0 | 0.00 | 0.00 | 0.00 | 58 | 1017.6 |
| 20260503224038 | 66 | 200 | 1.0 | 6.0 | 0.00 | 0.00 | 0.00 | 59 | 1017.6 |
| 20260503223538 | 66 | 177 | 1.0 | 6.0 | 0.00 | 0.00 | 0.00 | 57 | 1017.5 |
| 20260503223049 | 67 | 135 | 1.0 | 4.0 | 0.00 | 0.00 | 0.00 | 58 | 1017.4 |
| 20260503222538 | 67 | 177 | 1.0 | 6.0 | 0.00 | 0.00 | 0.00 | 56 | 1017.5 |
| 20260503222042 | 68 | 153 | 1.0 | 6.0 | 0.00 | 0.00 | 0.00 | 56 | 1017.4 |
| 20260503221550 | 68 | 223 | 1.0 | 5.0 | 0.00 | 0.00 | 0.00 | 56 | 1017.4 |
| 20260503221036 | 67 | 184 | 1.0 | 5.0 | 0.00 | 0.00 | 0.00 | 57 | 1017.4 |
| 20260503220535 | 68 | 182 | 1.0 | 5.0 | 0.00 | 0.00 | 0.00 | 55 | 1017.3 |
| 20260503220053 | 68 | 164 | 1.0 | 5.0 | 0.00 | 0.00 | 0.00 | 55 | 1017.3 |
| 20260503215538 | 68 | 217 | 1.0 | 4.0 | 0.00 | 0.00 | 0.00 | 56 | 1017.4 |
| 20260503215039 | 68 | 200 | 2.0 | 4.0 | 0.00 | 0.00 | 0.00 | 54 | 1017.3 |
| 20260503214547 | 68 | 101 | 1.0 | 6.0 | 0.00 | 0.00 | 0.00 | 56 | 1017.3 |
| 20260503214039 | 68 | 178 | 2.0 | 6.0 | 0.00 | 0.00 | 0.00 | 56 | 1017.3 |
| 20260503213539 | 68 | 184 | 1.0 | 4.0 | 0.00 | 0.00 | 0.00 | 56 | 1017.4 |
| 20260503213056 | 69 | 185 | 1.0 | 4.0 | 0.00 | 0.00 | 0.00 | 57 | 1017.3 |
| 20260503212539 | 69 | 0 | 1.0 | 6.0 | 0.00 | 0.00 | 0.00 | 58 | 1017.4 |
| 20260503212039 | 68 | 128 | 1.0 | 8.0 | 0.00 | 0.00 | 0.00 | 57 | 1017.4 |
| 20260503211610 | 69 | 86 | 1.0 | 8.0 | 0.00 | 0.00 | 0.00 | 56 | 1017.6 |
| 20260503211038 | 68 | 157 | 1.0 | 8.0 | 0.00 | 0.00 | 0.00 | 59 | 1017.6 |
| 20260503210540 | 68 | 148 | 2.0 | 7.0 | 0.00 | 0.00 | 0.00 | 58 | 1017.6 |
| 20260503210050 | 68 | 186 | 2.0 | 6.0 | 0.00 | 0.00 | 0.00 | 59 | 1017.7 |
| 20260503205538 | 68 | 125 | 2.0 | 7.0 | 0.00 | 0.01 | 0.00 | 55 | 1017.9 |
| 20260503205039 | 68 | 189 | 3.0 | 7.0 | 0.00 | 0.01 | 0.00 | 57 | 1018.0 |
| 20260503204548 | 68 | 175 | 3.0 | 8.0 | 0.00 | 0.01 | 0.00 | 55 | 1017.9 |
| 20260503204036 | 68 | 196 | 3.0 | 8.0 | 0.00 | 0.01 | 0.00 | 58 | 1018.0 |
| 20260503203536 | 68 | 166 | 2.0 | 7.0 | 0.00 | 0.01 | 0.00 | 58 | 1018.1 |
| 20260503203049 | 69 | 175 | 2.0 | 6.0 | 0.00 | 0.01 | 0.00 | 57 | 1018.0 |
| 20260503202539 | 68 | 163 | 2.0 | 7.0 | 0.00 | 0.01 | 0.00 | 55 | 1018.1 |
| 20260503202038 | 68 | 122 | 2.0 | 7.0 | 0.00 | 0.01 | 0.00 | 56 | 1018.1 |
| 20260503201548 | 68 | 94 | 2.0 | 7.0 | 0.00 | 0.01 | 0.00 | 56 | 1018.2 |
| 20260503201041 | 66 | 145 | 1.0 | 6.0 | 0.00 | 0.01 | 0.00 | 58 | 1018.2 |
| 20260503200539 | 66 | 94 | 1.0 | 6.0 | 0.00 | 0.01 | 0.00 | 60 | 1018.3 |
| 20260503200056 | 66 | 151 | 2.0 | 6.0 | 0.00 | 0.01 | 0.00 | 58 | 1018.3 |
| 20260503195538 | 67 | 167 | 1.0 | 7.0 | 0.00 | 0.06 | 0.00 | 59 | 1018.3 |
| 20260503195038 | 69 | 104 | 1.0 | 9.0 | 0.00 | 0.06 | 0.00 | 58 | 1018.3 |
| 20260503194556 | 68 | 109 | 3.0 | 9.0 | 0.00 | 0.06 | 0.00 | 55 | 1018.5 |
| 20260503194037 | 69 | 153 | 3.0 | 8.0 | 0.00 | 0.06 | 0.00 | 53 | 1018.5 |
| 20260503193536 | 71 | 126 | 2.0 | 8.0 | 0.00 | 0.06 | 0.00 | 56 | 1018.5 |
| 20260503193101 | 70 | 181 | 1.0 | 8.0 | 0.00 | 0.06 | 0.00 | 54 | 1018.7 |
| 20260503192541 | 69 | 161 | 3.0 | 7.0 | 0.00 | 0.06 | 0.00 | 55 | 1018.8 |
| 20260503192039 | 70 | 121 | 2.0 | 6.0 | 0.00 | 0.06 | 0.00 | 58 | 1018.9 |
| 20260503191549 | 68 | 152 | 1.0 | 6.0 | 0.00 | 0.06 | 0.00 | 61 | 1018.9 |
| 20260503191039 | 67 | 83 | 1.0 | 5.0 | 0.00 | 0.06 | 0.00 | 56 | 1019.1 |
| 20260503190538 | 66 | 0 | 1.0 | 5.0 | 0.00 | 0.06 | 0.00 | 59 | 1019.2 |
| 20260503190049 | 66 | 148 | 1.0 | 5.0 | 0.00 | 0.06 | 0.00 | 58 | 1019.3 |
| 20260503185536 | 66 | 190 | 1.0 | 5.0 | 0.00 | 0.11 | 0.00 | 57 | 1019.3 |
| 20260503185037 | 67 | 184 | 1.0 | 4.0 | 0.00 | 0.11 | 0.00 | 57 | 1019.3 |
| 20260503184602 | 66 | 98 | 1.0 | 5.0 | 0.00 | 0.11 | 0.00 | 62 | 1019.4 |
| 20260503184036 | 65 | 186 | 1.0 | 7.0 | 0.00 | 0.11 | 0.00 | 58 | 1019.5 |
| 20260503183539 | 66 | 203 | 2.0 | 8.0 | 0.00 | 0.11 | 0.00 | 56 | 1019.5 |
| 20260503183053 | 66 | 188 | 2.0 | 8.0 | 0.00 | 0.11 | 0.00 | 57 | 1019.6 |
| 20260503182538 | 67 | 128 | 2.0 | 8.0 | 0.00 | 0.11 | 0.00 | 59 | 1019.6 |
| 20260503182035 | 67 | 161 | 2.0 | 6.0 | 0.00 | 0.11 | 0.00 | 56 | 1019.6 |
| 20260503181608 | 68 | 49 | 1.0 | 6.0 | 0.00 | 0.11 | 0.00 | 56 | 1019.8 |
| 20260503181035 | 70 | 169 | 1.0 | 8.0 | 0.00 | 0.11 | 0.00 | 49 | 1019.6 |
| 20260503180539 | 70 | 327 | 3.0 | 8.0 | 0.00 | 0.11 | 0.00 | 49 | 1019.5 |
| 20260503180110 | 69 | 311 | 3.0 | 8.0 | 0.00 | 0.11 | 0.00 | 47 | 1019.6 |
| 20260503175538 | 71 | 173 | 2.0 | 6.0 | 0.00 | 0.22 | 0.00 | 48 | 1019.6 |
| 20260503175038 | 69 | 0 | 0.0 | 6.0 | 0.00 | 0.22 | 0.00 | 46 | 1019.6 |
| 20260503174556 | 69 | 142 | 1.0 | 5.0 | 0.00 | 0.22 | 0.00 | 52 | 1019.7 |
| 20260503174038 | 68 | 5 | 1.0 | 5.0 | 0.00 | 0.22 | 0.00 | 46 | 1019.6 |
| 20260503173538 | 68 | 47 | 1.0 | 5.0 | 0.00 | 0.22 | 0.00 | 50 | 1019.6 |
| 20260503173059 | 68 | 128 | 1.0 | 6.0 | 0.00 | 0.22 | 0.00 | 48 | 1019.7 |
| 20260503172537 | 67 | 193 | 3.0 | 7.0 | 0.00 | 0.22 | 0.00 | 49 | 1019.8 |
| 20260503172037 | 67 | 201 | 4.0 | 7.0 | 0.00 | 0.22 | 0.00 | 47 | 1019.8 |
| 20260503171549 | 68 | 190 | 2.0 | 6.0 | 0.00 | 0.22 | 0.00 | 49 | 1019.9 |
| 20260503171039 | 67 | 190 | 1.0 | 3.0 | 0.00 | 0.22 | 0.00 | 53 | 1019.9 |
| 20260503170536 | 66 | 202 | 1.0 | 5.0 | 0.00 | 0.22 | 0.00 | 51 | 1020.0 |
| 20260503150539 | 64 | 291 | 2.0 | 8.0 | 0.00 | 0.35 | 0.00 | 58 | 1020.5 |
| 20260503131035 | 57 | 284 | 2.0 | 5.0 | 0.00 | 0.70 | 0.00 | 82 | 1019.8 |
| 20260503130537 | 57 | 346 | 1.0 | 3.0 | 0.00 | 0.70 | 0.00 | 84 | 1019.9 |
| 20260503110540 | 46 | 0 | 0.0 | 0.0 | 0.00 | 0.80 | 0.00 | 94 | 1018.7 |
| 20260503081549 | 49 | 0 | 0.0 | 0.0 | 0.00 | 1.08 | 0.00 | 93 | 1017.0 |
| 20260503081039 | 49 | 0 | 0.0 | 0.0 | 0.00 | 1.08 | 0.00 | 93 | 1017.0 |
| 20260503080536 | 49 | 0 | 0.0 | 0.0 | 0.00 | 1.08 | 0.00 | 93 | 1017.0 |
| 20260503072541 | 49 | 0 | 0.0 | 0.0 | 0.00 | 1.11 | 0.00 | 93 | 1016.7 |
| 20260503072036 | 49 | 0 | 0.0 | 0.0 | 0.00 | 1.11 | 0.00 | 93 | 1016.7 |
| 20260503071552 | 49 | 0 | 0.0 | 0.0 | 0.00 | 1.11 | 0.00 | 93 | 1016.6 |
| 20260503071043 | 49 | 0 | 0.0 | 0.0 | 0.00 | 1.11 | 0.00 | 93 | 1016.7 |
| 20260503070535 | 49 | 0 | 0.0 | 0.0 | 0.00 | 1.11 | 0.00 | 93 | 1016.6 |
| 20260503055038 | 51 | 0 | 0.0 | 1.0 | 0.00 | 1.16 | 0.00 | 92 | 1016.4 |
| 20260503054546 | 51 | 0 | 0.0 | 2.0 | 0.00 | 1.16 | 0.00 | 92 | 1016.4 |
| 20260503054039 | 51 | 0 | 0.0 | 2.0 | 0.00 | 1.16 | 0.00 | 92 | 1016.4 |
| 20260503053538 | 52 | 322 | 0.0 | 2.0 | 0.00 | 1.16 | 0.00 | 92 | 1016.3 |
| 20260503053047 | 51 | 0 | 0.0 | 2.0 | 0.00 | 1.16 | 0.00 | 92 | 1016.2 |
| 20260503052536 | 52 | 0 | 0.0 | 2.0 | 0.00 | 1.16 | 0.00 | 92 | 1016.2 |
| 20260503052036 | 52 | 0 | 0.0 | 1.0 | 0.00 | 1.16 | 0.00 | 92 | 1016.2 |
| 20260503051550 | 52 | 0 | 0.0 | 2.0 | 0.00 | 1.16 | 0.00 | 92 | 1016.3 |
| 20260503051037 | 52 | 0 | 0.0 | 2.0 | 0.00 | 1.16 | 0.00 | 92 | 1016.3 |
| 20260503050536 | 52 | 322 | 0.0 | 1.0 | 0.00 | 1.16 | 0.00 | 92 | 1016.2 |
| 20260503050048 | 52 | 0 | 0.0 | 0.0 | 0.00 | 1.16 | 0.00 | 92 | 1016.1 |
| 20260503045541 | 52 | 0 | 0.0 | 0.0 | 0.00 | 1.16 | 0.00 | 91 | 1016.1 |
| 20260503045039 | 52 | 0 | 0.0 | 0.0 | 0.00 | 1.16 | 0.00 | 91 | 1016.0 |
| 20260503044548 | 52 | 0 | 0.0 | 2.0 | 0.00 | 1.16 | 0.00 | 91 | 1015.9 |
| 20260503044035 | 53 | 0 | 0.0 | 2.0 | 0.00 | 1.16 | 0.00 | 91 | 1015.9 |
| 20260503043536 | 53 | 322 | 0.0 | 2.0 | 0.00 | 1.16 | 0.00 | 91 | 1015.8 |
| 20260503043046 | 53 | 322 | 1.0 | 2.0 | 0.00 | 1.16 | 0.00 | 91 | 1015.7 |
| 20260503042536 | 53 | 321 | 0.0 | 2.0 | 0.00 | 1.16 | 0.00 | 91 | 1015.7 |
| 20260503042038 | 53 | 326 | 0.0 | 3.0 | 0.00 | 1.16 | 0.00 | 91 | 1015.5 |
| 20260503041550 | 53 | 326 | 1.0 | 3.0 | 0.00 | 1.16 | 0.00 | 91 | 1015.6 |
| 20260503041038 | 54 | 329 | 1.0 | 3.0 | 0.00 | 1.16 | 0.00 | 91 | 1015.6 |
| 20260503040535 | 54 | 324 | 0.0 | 3.0 | 0.00 | 1.16 | 0.00 | 91 | 1015.3 |
| 20260503040046 | 54 | 0 | 0.0 | 2.0 | 0.00 | 1.16 | 0.00 | 91 | 1015.3 |
| 20260503035536 | 54 | 300 | 0.0 | 0.0 | 0.00 | 1.16 | 1.16 | 91 | 1015.2 |
| 20260503035036 | 54 | 0 | 0.0 | 0.0 | 0.00 | 1.16 | 1.16 | 90 | 1015.0 |
| 20260503034557 | 54 | 0 | 0.0 | 0.0 | 0.00 | 1.16 | 1.16 | 90 | 1014.9 |
| 20260503034036 | 54 | 0 | 0.0 | 0.0 | 0.00 | 1.16 | 1.16 | 90 | 1015.0 |
| 20260503033535 | 54 | 0 | 0.0 | 2.0 | 0.00 | 1.16 | 1.16 | 90 | 1014.9 |
| 20260503033046 | 54 | 0 | 0.0 | 4.0 | 0.00 | 1.16 | 1.16 | 90 | 1014.9 |
| 20260503032535 | 54 | 300 | 1.0 | 4.0 | 0.00 | 1.16 | 1.16 | 89 | 1014.7 |
| 20260503032038 | 54 | 0 | 0.0 | 2.0 | 0.00 | 1.16 | 1.16 | 89 | 1014.9 |
| 20260503031547 | 54 | 0 | 0.0 | 2.0 | 0.00 | 1.16 | 1.16 | 89 | 1014.8 |
| 20260503031038 | 54 | 301 | 0.0 | 2.0 | 0.00 | 1.16 | 1.16 | 89 | 1014.6 |
| 20260503030535 | 54 | 301 | 0.0 | 2.0 | 0.00 | 1.16 | 1.16 | 88 | 1014.5 |
| 20260503030118 | 55 | 0 | 0.0 | 3.0 | 0.00 | 1.16 | 1.16 | 88 | 1014.5 |
| 20260503025536 | 55 | 0 | 0.0 | 3.0 | 0.00 | 1.16 | 1.16 | 88 | 1014.6 |
| 20260503025037 | 55 | 0 | 0.0 | 4.0 | 0.00 | 1.16 | 1.16 | 88 | 1014.5 |
| 20260503024549 | 55 | 0 | 1.0 | 4.0 | 0.00 | 1.16 | 1.16 | 88 | 1014.5 |
| 20260503024036 | 55 | 315 | 0.0 | 3.0 | 0.00 | 1.16 | 1.16 | 88 | 1014.4 |
| 20260503023536 | 55 | 317 | 0.0 | 4.0 | 0.00 | 1.16 | 1.16 | 88 | 1014.3 |
| 20260503023051 | 55 | 302 | 1.0 | 4.0 | 0.00 | 1.16 | 1.16 | 88 | 1014.3 |
| 20260503022535 | 55 | 339 | 0.0 | 3.0 | 0.00 | 1.16 | 1.16 | 88 | 1014.2 |
| 20260503022038 | 55 | 330 | 1.0 | 3.0 | 0.00 | 1.16 | 1.16 | 88 | 1014.1 |
| 20260503021602 | 55 | 0 | 0.0 | 2.0 | 0.00 | 1.16 | 1.16 | 88 | 1013.9 |
| 20260503021038 | 55 | 0 | 0.0 | 2.0 | 0.00 | 1.16 | 1.16 | 88 | 1013.9 |
| 20260503020538 | 55 | 0 | 0.0 | 4.0 | 0.00 | 1.16 | 1.16 | 88 | 1013.9 |
| 20260503020049 | 55 | 306 | 1.0 | 4.0 | 0.00 | 1.16 | 1.16 | 88 | 1013.8 |
| 20260503015536 | 55 | 299 | 1.0 | 6.0 | 0.00 | 1.16 | 1.16 | 88 | 1013.8 |
| 20260503015039 | 55 | 0 | 0.0 | 7.0 | 0.00 | 1.16 | 1.16 | 88 | 1013.7 |
| 20260503014602 | 55 | 344 | 1.0 | 7.0 | 0.00 | 1.16 | 1.16 | 88 | 1013.5 |
| 20260503014039 | 55 | 0 | 0.0 | 2.0 | 0.00 | 1.16 | 1.16 | 88 | 1013.3 |
| 20260503013539 | 55 | 0 | 0.0 | 2.0 | 0.00 | 1.16 | 1.16 | 88 | 1013.3 |
| 20260503013053 | 55 | 0 | 0.0 | 4.0 | 0.00 | 1.16 | 1.16 | 87 | 1013.1 |
| 20260503012536 | 55 | 0 | 0.0 | 4.0 | 0.00 | 1.16 | 1.16 | 87 | 1013.1 |
| 20260503012037 | 55 | 355 | 1.0 | 4.0 | 0.00 | 1.16 | 1.16 | 87 | 1013.3 |
| 20260503011555 | 55 | 95 | 0.0 | 3.0 | 0.00 | 1.16 | 1.16 | 88 | 1013.4 |
| 20260503011037 | 55 | 0 | 0.0 | 4.0 | 0.00 | 1.16 | 1.16 | 88 | 1013.3 |
| 20260503010536 | 55 | 0 | 0.0 | 4.0 | 0.00 | 1.16 | 1.16 | 88 | 1013.4 |
| 20260503010104 | 55 | 340 | 0.0 | 7.0 | 0.00 | 1.16 | 1.16 | 88 | 1013.4 |
| 20260503005540 | 55 | 344 | 1.0 | 7.0 | 0.00 | 1.19 | 1.16 | 88 | 1013.4 |
| 20260503005039 | 55 | 350 | 1.0 | 4.0 | 0.00 | 1.19 | 1.16 | 88 | 1013.3 |
| 20260503004546 | 55 | 277 | 0.0 | 3.0 | 0.00 | 1.19 | 1.16 | 87 | 1013.3 |
| 20260503004038 | 55 | 292 | 1.0 | 8.0 | 0.00 | 1.19 | 1.16 | 87 | 1013.1 |
| 20260503003536 | 55 | 209 | 1.0 | 8.0 | 0.00 | 1.19 | 1.16 | 88 | 1012.8 |
| 20260503003117 | 55 | 334 | 1.0 | 5.0 | 0.00 | 1.19 | 1.16 | 88 | 1012.9 |
| 20260503002539 | 56 | 286 | 1.0 | 5.0 | 0.00 | 1.19 | 1.16 | 88 | 1012.9 |
| 20260503002039 | 56 | 0 | 1.0 | 3.0 | 0.00 | 1.19 | 1.16 | 88 | 1012.8 |
| 20260503001549 | 56 | 294 | 1.0 | 5.0 | 0.00 | 1.19 | 1.16 | 88 | 1012.5 |
| 20260503001039 | 56 | 327 | 1.0 | 5.0 | 0.00 | 1.19 | 1.16 | 88 | 1012.4 |
| 20260503000535 | 56 | 340 | 1.0 | 4.0 | 0.00 | 1.19 | 1.16 | 88 | 1012.5 |
| 20260503000053 | 56 | 0 | 0.0 | 4.0 | 0.00 | 1.19 | 1.16 | 88 | 1012.5 |
| 20260502235539 | 56 | 333 | 1.0 | 4.0 | 0.00 | 1.25 | 1.16 | 88 | 1012.5 |
| 20260502235038 | 56 | 0 | 1.0 | 5.0 | 0.00 | 1.25 | 1.16 | 88 | 1012.4 |
| 20260502234548 | 56 | 313 | 1.0 | 5.0 | 0.00 | 1.25 | 1.16 | 88 | 1012.4 |
| 20260502234038 | 56 | 0 | 1.0 | 5.0 | 0.00 | 1.25 | 1.16 | 88 | 1012.2 |
| 20260502233536 | 56 | 309 | 1.0 | 5.0 | 0.00 | 1.25 | 1.16 | 88 | 1012.0 |
| 20260502233047 | 56 | 292 | 1.0 | 9.0 | 0.00 | 1.25 | 1.16 | 88 | 1012.1 |
| 20260502232539 | 56 | 279 | 2.0 | 9.0 | 0.00 | 1.25 | 1.16 | 88 | 1012.1 |
| 20260502232039 | 56 | 337 | 2.0 | 4.0 | 0.00 | 1.25 | 1.16 | 89 | 1012.0 |
| 20260502231544 | 57 | 0 | 1.0 | 4.0 | 0.00 | 1.25 | 1.16 | 89 | 1011.9 |
| 20260502231036 | 57 | 0 | 1.0 | 4.0 | 0.00 | 1.25 | 1.16 | 88 | 1011.7 |
| 20260502230536 | 57 | 0 | 0.0 | 6.0 | 0.00 | 1.25 | 1.16 | 88 | 1011.7 |
| 20260502230055 | 57 | 304 | 2.0 | 6.0 | 0.00 | 1.25 | 1.16 | 88 | 1011.6 |
| 20260502225538 | 57 | 104 | 1.0 | 4.0 | 0.00 | 1.26 | 1.16 | 89 | 1011.7 |